• In Moldova, Republic
  • List of Countries
  • For 7 days
  • Water Temperature
  • Satellite Maps
  • Weather Map
  • Weather Widgets
  • user-avatar
    Login

    Hourly Weather Durres

    Today, 22 January, Sunday

    Time Temperature Precipitation Wind Pressure Humidity
    00:00 +4°C° 0.1 mm 3 mps 770 mmHg 76%
    01:00 +4°C° 0 mm 4 mps 770 mmHg 74%
    02:00 +4°C° 0.2 mm 4 mps 770 mmHg 75%
    03:00 +4°C° 0.2 mm 4 mps 770 mmHg 75%
    04:00 +4°C° 0.2 mm 3 mps 770 mmHg 76%
    05:00 +4°C° 0.1 mm 4 mps 770 mmHg 76%
    06:00 +4°C° 0.1 mm 4 mps 770 mmHg 77%
    07:00 +4°C° 0.1 mm 4 mps 770 mmHg 77%
    08:00 +5°C° 0 mm 4 mps 770 mmHg 74%
    09:00 +6°C° 0 mm 4 mps 770 mmHg 71%
    10:00 +8°C° 0 mm 4 mps 770 mmHg 67%
    11:00 +10°C° 0 mm 3 mps 769 mmHg 66%
    12:00 +11°C° 0 mm 3 mps 769 mmHg 64%
    13:00 +11°C° 0 mm 3 mps 768 mmHg 63%
    14:00 +11°C° 0 mm 3 mps 768 mmHg 66%
    15:00 +10°C° 0 mm 3 mps 768 mmHg 70%
    16:00 +9°C° 0 mm 3 mps 768 mmHg 74%
    17:00 +8°C° 0 mm 3 mps 768 mmHg 76%
    18:00 +7°C° 0 mm 3 mps 768 mmHg 77%
    19:00 +5°C° 0 mm 3 mps 768 mmHg 79%
    20:00 +4°C° 0 mm 4 mps 768 mmHg 79%
    21:00 +4°C° 0 mm 4 mps 768 mmHg 79%
    22:00 +4°C° 0 mm 4 mps 769 mmHg 79%
    23:00 +4°C° 0 mm 4 mps 768 mmHg 78%

    Tomorrow, 23 January, Monday

    Time Temperature Precipitation Wind Pressure Humidity
    00:00 +4°C° 0 mm 4 mps 768 mmHg 78%
    01:00 +4°C° 0 mm 4 mps 768 mmHg 78%
    02:00 +3°C° 0 mm 4 mps 768 mmHg 78%
    03:00 +3°C° 0 mm 4 mps 767 mmHg 78%
    04:00 +3°C° 0 mm 4 mps 767 mmHg 77%
    05:00 +3°C° 0 mm 4 mps 767 mmHg 77%
    06:00 +3°C° 0 mm 4 mps 766 mmHg 76%
    07:00 +3°C° 0 mm 4 mps 766 mmHg 75%
    08:00 +4°C° 0 mm 4 mps 766 mmHg 71%
    09:00 +6°C° 0 mm 4 mps 766 mmHg 67%
    10:00 +9°C° 0 mm 3 mps 766 mmHg 63%
    11:00 +10°C° 0 mm 4 mps 765 mmHg 62%
    12:00 +10°C° 0 mm 4 mps 765 mmHg 61%
    13:00 +11°C° 0 mm 4 mps 764 mmHg 60%
    14:00 +10°C° 0 mm 4 mps 764 mmHg 65%
    15:00 +10°C° 0 mm 4 mps 763 mmHg 69%
    16:00 +8°C° 0 mm 4 mps 763 mmHg 73%
    17:00 +7°C° 0.2 mm 4 mps 763 mmHg 75%
    18:00 +6°C° 0.2 mm 4 mps 763 mmHg 77%
    19:00 +5°C° 0.2 mm 4 mps 762 mmHg 80%
    20:00 +5°C° 0.7 mm 5 mps 762 mmHg 81%
    21:00 +5°C° 0.7 mm 5 mps 762 mmHg 82%
    22:00 +5°C° 0.7 mm 5 mps 762 mmHg 83%
    23:00 +5°C° 1.5 mm 5 mps 761 mmHg 84%

    Day after tomorrow, 24 January, Tuesday

    Time Temperature Precipitation Wind Pressure Humidity
    00:00 +5°C° 1.5 mm 4 mps 761 mmHg 85%
    01:00 +5°C° 1.5 mm 4 mps 760 mmHg 86%
    02:00 +5°C° 1.3 mm 4 mps 760 mmHg 87%
    03:00 +5°C° 1.3 mm 4 mps 760 mmHg 88%
    04:00 +5°C° 1.3 mm 4 mps 760 mmHg 89%
    05:00 +5°C° 0.4 mm 4 mps 760 mmHg 88%
    06:00 +5°C° 0.4 mm 4 mps 760 mmHg 87%
    07:00 +5°C° 0.4 mm 4 mps 760 mmHg 87%
    08:00 +6°C° 0.1 mm 4 mps 760 mmHg 85%
    09:00 +7°C° 0.1 mm 4 mps 760 mmHg 83%
    10:00 +7°C° 0.1 mm 4 mps 760 mmHg 81%
    11:00 +8°C° 0.1 mm 4 mps 760 mmHg 80%
    12:00 +9°C° 0.1 mm 3 mps 759 mmHg 79%
    13:00 +10°C° 0.1 mm 3 mps 759 mmHg 78%
    14:00 +9°C° 0.1 mm 3 mps 759 mmHg 80%
    15:00 +9°C° 0.1 mm 3 mps 759 mmHg 82%
    16:00 +9°C° 0.1 mm 3 mps 759 mmHg 83%
    17:00 +8°C° 0 mm 3 mps 759 mmHg 84%
    18:00 +7°C° 0 mm 4 mps 760 mmHg 84%
    19:00 +6°C° 0 mm 4 mps 760 mmHg 85%
    20:00 +6°C° 0.1 mm 4 mps 760 mmHg 85%
    21:00 +6°C° 0.1 mm 4 mps 760 mmHg 85%
    22:00 +6°C° 0.1 mm 4 mps 761 mmHg 85%
    23:00 +5°C° 0.1 mm 4 mps 761 mmHg 85%

    25 January, Wednesday

    Time Temperature Precipitation Wind Pressure Humidity
    00:00 +5°C° 0.1 mm 4 mps 761 mmHg 85%
    01:00 +5°C° 0.1 mm 5 mps 761 mmHg 85%
    02:00 +5°C° 0 mm 5 mps 761 mmHg 85%
    03:00 +5°C° 0 mm 5 mps 761 mmHg 85%
    04:00 +3°C° 0 mm 5 mps 761 mmHg 85%
    05:00 +3°C° 0 mm 5 mps 762 mmHg 85%
    06:00 +3°C° 0 mm 5 mps 762 mmHg 84%
    07:00 +3°C° 0 mm 5 mps 762 mmHg 84%
    08:00 +5°C° 0 mm 5 mps 763 mmHg 81%
    09:00 +6°C° 0 mm 5 mps 763 mmHg 77%
    10:00 +7°C° 0 mm 6 mps 764 mmHg 74%
    11:00 +7°C° 0 mm 5 mps 763 mmHg 72%
    12:00 +8°C° 0 mm 5 mps 763 mmHg 71%
    13:00 +9°C° 0 mm 5 mps 763 mmHg 69%
    14:00 +8°C° 0 mm 5 mps 763 mmHg 71%
    15:00 +8°C° 0 mm 5 mps 764 mmHg 74%
    16:00 +7°C° 0 mm 5 mps 764 mmHg 76%
    17:00 +6°C° 0 mm 5 mps 764 mmHg 77%
    18:00 +4°C° 0 mm 6 mps 765 mmHg 79%
    19:00 +3°C° 0 mm 6 mps 765 mmHg 80%
    20:00 +3°C° 0 mm 6 mps 766 mmHg 80%
    21:00 +2°C° 0 mm 5 mps 766 mmHg 80%
    22:00 +2°C° 0 mm 5 mps 767 mmHg 79%
    23:00 +2°C° 0 mm 5 mps 767 mmHg 79%

    26 January, Thursday

    Time Temperature Precipitation Wind Pressure Humidity
    00:00 +1°C° 0 mm 5 mps 767 mmHg 79%
    01:00 +1°C° 0 mm 5 mps 767 mmHg 78%
    02:00 +1°C° 0 mm 5 mps 767 mmHg 78%
    03:00 +1°C° 0 mm 5 mps 767 mmHg 78%
    04:00 +1°C° 0 mm 5 mps 767 mmHg 77%
    05:00 +1°C° 0 mm 5 mps 768 mmHg 77%
    06:00 0°C° 0 mm 5 mps 768 mmHg 76%
    07:00 0°C° 0 mm 4 mps 768 mmHg 76%
    08:00 +3°C° 0 mm 4 mps 769 mmHg 72%
    09:00 +4°C° 0 mm 4 mps 769 mmHg 68%
    10:00 +6°C° 0 mm 4 mps 769 mmHg 64%
    11:00 +7°C° 0 mm 4 mps 769 mmHg 62%
    12:00 +8°C° 0 mm 4 mps 769 mmHg 60%
    13:00 +10°C° 0 mm 3 mps 769 mmHg 58%
    14:00 +9°C° 0 mm 3 mps 769 mmHg 62%
    15:00 +8°C° 0 mm 4 mps 769 mmHg 67%
    16:00 +7°C° 0 mm 4 mps 769 mmHg 71%
    17:00 +6°C° 0 mm 4 mps 770 mmHg 73%
    18:00 +4°C° 0 mm 4 mps 770 mmHg 75%
    19:00 +3°C° 0 mm 4 mps 771 mmHg 77%
    20:00 +3°C° 0 mm 4 mps 771 mmHg 77%
    21:00 +1°C° 0 mm 4 mps 772 mmHg 76%
    22:00 +1°C° 0 mm 4 mps 772 mmHg 75%
    23:00 +1°C° 0 mm 4 mps 772 mmHg 75%

    27 January, Friday

    Time Temperature Precipitation Wind Pressure Humidity
    00:00 0°C° 0 mm 4 mps 772 mmHg 74%
    01:00 0°C° 0 mm 4 mps 772 mmHg 74%
    02:00 +1°C° 0 mm 3 mps 772 mmHg 73%
    03:00 +1°C° 0 mm 3 mps 772 mmHg 72%
    04:00 +1°C° 0 mm 3 mps 772 mmHg 71%
    05:00 +1°C° 0 mm 3 mps 773 mmHg 71%
    06:00 +1°C° 0 mm 3 mps 773 mmHg 70%
    07:00 +1°C° 0 mm 3 mps 773 mmHg 69%
    08:00 +4°C° 0 mm 2 mps 773 mmHg 64%
    09:00 +5°C° 0 mm 2 mps 773 mmHg 59%
    10:00 +7°C° 0 mm 2 mps 774 mmHg 55%
    11:00 +8°C° 0 mm 2 mps 773 mmHg 52%
    12:00 +9°C° 0 mm 2 mps 773 mmHg 50%
    13:00 +11°C° 0 mm 1 mps 773 mmHg 47%
    14:00 +10°C° 0 mm 1 mps 773 mmHg 53%
    15:00 +9°C° 0 mm 1 mps 773 mmHg 59%
    16:00 +7°C° 0 mm 2 mps 773 mmHg 66%
    17:00 +6°C° 0 mm 2 mps 773 mmHg 68%
    18:00 +5°C° 0 mm 2 mps 773 mmHg 71%
    19:00 +3°C° 0 mm 2 mps 773 mmHg 74%
    20:00 +3°C° 0 mm 2 mps 773 mmHg 74%
    21:00 +3°C° 0 mm 2 mps 773 mmHg 75%
    22:00 +4°C° 0 mm 1 mps 773 mmHg 75%
    23:00 +4°C° 0 mm 1 mps 773 mmHg 74%
    Show more